"Timestamp","TZ","WindDir_Mean (deg)","WindSpd_Mean (km/h)","WindSpd_Min (km/h)","WindSpd_Max (km/h)","Temp_Mean (deg)","RH_Mean (%)","MSLP_Mean (hPa)","Rain_Acc (mm)","Rain_Intensity (mm/h)","Hail_Acc (hits/cm2)","Hail_Intensity (hits/cm2hr)","Solar_Mean (W/m2)"
2023/07/06 00:00:00.006,n,274,7.92,7.2,8.28,16.200002,58.2,1016.82,0,0,0,0,0.033112
2023/07/06 00:01:00.001,n,257,6.48,5.04,7.2,16.200002,58.3,1016.72,0,0,0,0,0.032196
2023/07/06 00:02:00.001,n,191,3.6,1.44,5.04,16.200002,58.1,1016.72,0,0,0,0,0.031319
2023/07/06 00:03:00.001,n,280,6.48,6.12,6.84,16.200002,58.1,1016.72,0,0,0,0,0.029602
2023/07/06 00:04:00.001,n,229,4.32,1.8,6.12,16.200002,58.1,1016.82,0,0,0,0,0.029602
2023/07/06 00:05:00.002,n,255,5.04,2.16,6.12,16.200002,57.9,1016.72,0,0,0,0,0.031319
2023/07/06 00:06:00.005,n,260,7.2,6.48,7.92,16.200002,57.9,1016.72,0,0,0,0,0.026131
2023/07/06 00:07:00.006,n,270,10.440002,7.2,11.88,16.200002,57.7,1016.72,0,0,0,0,0.026131
2023/07/06 00:08:00.010,n,281,8.64,7.56,10.8,16.200002,57.7,1016.72,0,0,0,0,0.029602
2023/07/06 00:09:00.001,n,266,10.440002,9.72,11.88,16.200002,57.7,1016.72,0,0,0,0,0.02697
2023/07/06 00:10:00.001,n,187,3.24,2.88,3.6,16.200002,57.9,1016.72,0,0,0,0,0.027847
2023/07/06 00:11:00.002,n,270,4.68,4.32,5.04,16.200002,57.9,1016.72,0,0,0,0,0.027847
2023/07/06 00:12:00.001,n,245,9.72,8.28,10.08,16.200002,57.9,1016.72,0,0,0,0,0.025253
2023/07/06 00:13:00.001,n,265,6.12,5.4,7.56,16.200002,58,1016.72,0,0,0,0,0.028725
2023/07/06 00:14:00.001,n,204,2.88,2.16,3.6,16.200002,58.1,1016.72,0,0,0,0,0.02697
2023/07/06 00:15:00.001,n,278,6.48,5.4,7.2,16.1,58,1016.72,0,0,0,0,0.02697
2023/07/06 00:16:00.003,n,269,9,7.2,10.440002,16.1,58,1016.62,0,0,0,0,0.026131
2023/07/06 00:17:00.006,n,266,4.68,0.72,6.12,16.1,58.5,1016.72,0,0,0,0,0.02697
2023/07/06 00:18:00.009,n,235,6.84,3.24,9.72,16.1,58,1016.62,0,0,0,0,0.027847
2023/07/06 00:19:00.001,n,279,8.64,6.84,9.72,16.1,58,1016.62,0,0,0,0,0.026131
2023/07/06 00:20:00.002,n,256,6.84,5.4,8.64,16.1,58.1,1016.62,0,0,0,0,0.023499
2023/07/06 00:21:00.001,n,265,7.56,6.84,8.64,16.1,58.2,1016.62,0,0,0,0,0.020027
2023/07/06 00:22:00.001,n,258,5.04,4.32,6.12,16.1,58.3,1016.62,0,0,0,0,0.028725
2023/07/06 00:23:00.009,n,257,5.4,3.24,6.48,16.1,58.4,1016.62,0,0,0,0,0.020027
2023/07/06 00:24:00.010,n,231,3.6,2.52,4.68,16.1,58.4,1016.62,0,0,0,0,0.021744
2023/07/06 00:25:00.011,n,273,3.24,1.8,4.68,16.1,58.4,1016.62,0,0,0,0,0.022621
2023/07/06 00:26:00.013,n,278,7.56,6.48,9.36,16.1,58.7,1016.62,0,0,0,0,0.020027
2023/07/06 00:27:00.015,n,262,7.56,7.2,7.92,16.1,58.6,1016.72,0,0,0,0,0.021744
2023/07/06 00:28:00.001,n,269,5.04,4.68,5.4,16.1,58.9,1016.72,0,0,0,0,0.020027
2023/07/06 00:29:00.001,n,272,8.64,7.92,9.36,16.1,58.8,1016.72,0,0,0,0,0.020027
2023/07/06 00:30:00.004,n,285,6.84,5.76,8.64,16,59,1016.72,0,0,0,0,0.025253
2023/07/06 00:31:00.003,n,290,4.32,2.88,5.76,16,59.1,1016.72,0,0,0,0,0.021744
2023/07/06 00:32:00.007,n,248,4.68,1.44,5.04,16,59.2,1016.72,0,0,0,0,0.021744
2023/07/06 00:33:00.011,n,257,8.64,7.2,10.08,15.9,59.4,1016.72,0,0,0,0,0.020905
2023/07/06 00:34:00.014,n,262,6.48,5.4,6.84,15.9,59.5,1016.72,0,0,0,0,0.024376
2023/07/06 00:35:00.001,n,255,5.76,1.8,7.2,15.9,59.7,1016.72,0,0,0,0,0.022621
2023/07/06 00:36:00.005,n,239,4.32,1.44,5.4,15.9,59.9,1016.72,0,0,0,0,0.020905
2023/07/06 00:37:00.001,n,206,3.24,1.8,3.96,15.8,60.2,1016.72,0,0,0,0,0.023499
2023/07/06 00:38:00.001,n,270,3.96,0.36,5.04,15.8,60.5,1016.72,0,0,0,0,0.024376
2023/07/06 00:39:00.001,n,238,3.24,1.44,5.4,15.8,60.5,1016.72,0,0,0,0,0.01915
2023/07/06 00:40:00.002,n,170,2.52,1.8,2.88,15.7,60.6,1016.72,0,0,0,0,0.021744
2023/07/06 00:41:00.007,n,179,2.16,1.08,4.32,15.7,60.7,1016.72,0,0,0,0,0.022621
2023/07/06 00:42:00.005,n,260,5.04,4.32,5.4,15.7,60.8,1016.72,0,0,0,0,0.020027
2023/07/06 00:43:00.008,n,243,5.76,1.8,7.92,15.7,60.8,1016.72,0,0,0,0,0.020027
2023/07/06 00:44:00.010,n,235,3.24,2.52,3.96,15.6,61,1016.72,0,0,0,0,0.01915
2023/07/06 00:45:00.013,n,225,4.32,3.24,5.04,15.6,61.1,1016.72,0,0,0,0,0.024414
2023/07/06 00:46:00.018,n,262,4.32,2.88,4.68,15.6,61.1,1016.72,0,0,0,0,0.02964
2023/07/06 00:47:00.008,n,265,3.96,0.72,5.76,15.6,61.3,1016.72,0,0,0,0,0.032272
2023/07/06 00:48:00.001,n,319,2.52,1.8,2.88,15.5,61.5,1016.62,0,0,0,0,0.033112
2023/07/06 00:49:00.012,n,281,2.16,1.44,3.24,15.5,62.4,1016.62,0,0,0,0,0.032272
2023/07/06 00:50:00.003,n,297,3.6,2.52,5.04,15.5,62.4,1016.62,0,0,0,0,0.03746
2023/07/06 00:51:00.005,n,282,4.68,4.32,5.4,15.5,62.6,1016.72,0,0,0,0,0.038338
2023/07/06 00:52:00.002,n,279,3.6,2.88,4.32,15.5,62.7,1016.72,0,0,0,0,0.04097
2023/07/06 00:53:00.010,n,239,2.88,0.72,6.12,15.4,62.4,1016.72,0,0,0,0,0.042686
2023/07/06 00:54:00.021,n,249,5.4,2.88,6.48,15.4,62.4,1016.72,0,0,0,0,0.023537
2023/07/06 00:55:00.001,n,270,3.6,3.24,3.96,15.3,62.5,1016.62,0,0,0,0,0.032272
2023/07/06 00:56:00.001,n,208,2.52,1.8,5.04,15.3,62.7,1016.62,0,0,0,0,0.036621
2023/07/06 00:57:00.009,n,287,6.12,5.76,6.48,15.3,62.9,1016.62,0,0,0,0,0.038338
2023/07/06 00:58:00.004,n,217,3.24,2.16,4.32,15.2,63,1016.62,0,0,0,0,0.039215
2023/07/06 00:59:00.002,n,269,5.4,5.04,5.76,15.2,63.2,1016.62,0,0,0,0,0.039215
2023/07/06 01:00:00.021,n,201,2.88,1.8,3.6,15.2,63.3,1016.62,0,0,0,0,0.03746
2023/07/06 01:01:00.001,n,282,3.6,3.24,4.32,15.2,63.8,1016.62,0,0,0,0,0.042686
2023/07/06 01:02:00.006,n,202,2.88,1.8,3.6,15.1,63.7,1016.62,0,0,0,0,0.044403
2023/07/06 01:03:00.003,n,243,5.04,2.16,7.2,15.1,63.8,1016.62,0,0,0,0,0.047035
2023/07/06 01:04:00.001,n,269,3.96,3.24,4.68,15.1,63.9,1016.62,0,0,0,0,0.047913
2023/07/06 01:05:00.004,n,264,5.76,2.16,7.56,15.1,64,1016.62,0,0,0,0,0.047913
2023/07/06 01:06:00.002,n,274,5.04,4.32,5.4,15,64.199996,1016.62,0,0,0,0,0.04879
2023/07/06 01:07:00.001,n,255,6.12,5.4,6.48,15,64.300004,1016.62,0,0,0,0,0.051384
2023/07/06 01:08:00.008,n,259,5.04,2.52,5.76,15,64.5,1016.62,0,0,0,0,0.024414
2023/07/06 01:09:00.010,n,248,5.4,5.04,5.76,15,64.6,1016.62,0,0,0,0,0.025291
2023/07/06 01:10:00.011,n,266,5.76,4.68,6.84,14.9,64.800004,1016.62,0,0,0,0,0.025291
2023/07/06 01:11:00.015,n,232,2.88,2.52,3.24,14.9,64.9,1016.62,0,0,0,0,0.02964
2023/07/06 01:12:00.013,n,272,3.96,3.24,4.32,14.9,65,1016.62,0,0,0,0,0.031357
2023/07/06 01:13:00.002,n,283,5.4,5.04,6.12,14.9,65.1,1016.62,0,0,0,0,0.033112
2023/07/06 01:14:00.005,n,280,6.48,5.04,7.56,14.9,65.199996,1016.62,0,0,0,0,0.034866
2023/07/06 01:15:00.002,n,299,5.04,3.6,6.12,14.8,65.5,1016.62,0,0,0,0,0.033112
2023/07/06 01:16:00.001,n,243,4.68,4.32,5.4,14.8,65.5,1016.52,0,0,0,0,0.035706
2023/07/06 01:17:00.002,n,258,6.12,5.4,6.48,14.8,65.6,1016.52,0,0,0,0,0.033112
2023/07/06 01:18:00.003,n,275,4.68,3.6,5.76,14.8,65.800004,1016.52,0,0,0,0,0.035706
2023/07/06 01:19:00.011,n,297,5.76,4.32,6.48,14.7,66,1016.52,0,0,0,0,0.03746
2023/07/06 01:20:00.011,n,263,9.36,8.28,11.16,14.7,66.1,1016.52,0,0,0,0,0.036583
2023/07/06 01:21:00.009,n,257,6.12,5.76,6.48,14.7,66.300004,1016.52,0,0,0,0,0.03746
2023/07/06 01:22:00.001,n,251,3.6,1.08,4.68,14.6,66.4,1016.52,0,0,0,0,0.03746
2023/07/06 01:23:00.001,n,282,5.4,5.04,5.76,14.6,66.5,1016.42,0,0,0,0,0.038338
2023/07/06 01:24:00.002,n,268,7.56,6.48,8.28,14.6,66.699996,1016.42,0,0,0,0,0.040054
2023/07/06 01:25:00.003,n,283,5.4,4.68,6.12,14.5,66.9,1016.42,0,0,0,0,0.038338
2023/07/06 01:26:00.001,n,280,4.68,3.6,5.4,14.5,67.1,1016.42,0,0,0,0,0.03746
2023/07/06 01:27:00.018,n,276,7.92,7.2,8.28,14.5,67.2,1016.32,0,0,0,0,0.039215
2023/07/06 01:28:00.002,n,267,10.440002,10.08,10.8,14.5,67.3,1016.32,0,0,0,0,0.040932
2023/07/06 01:29:00.015,n,255,6.84,5.76,8.64,14.4,67.3,1016.32,0,0,0,0,0.039215
2023/07/06 01:30:00.007,n,282,2.88,0.36,4.68,14.4,67.5,1016.42,0,0,0,0,0.040054
2023/07/06 01:31:00.001,n,242,5.04,4.32,5.76,14.3,67.6,1016.32,0,0,0,0,0.039215
2023/07/06 01:32:00.002,n,265,7.56,3.6,10.440002,14.3,67.7,1016.32,0,0,0,0,0.036583
2023/07/06 01:33:00.001,n,249,7.92,6.48,10.440002,14.3,67.9,1016.32,0,0,0,0,0.033989
2023/07/06 01:34:00.002,n,267,10.08,9.72,10.8,14.2,67.9,1016.32,0,0,0,0,0.036583
2023/07/06 01:35:00.010,n,257,6.48,6.12,7.56,14.2,68.1,1016.32,0,0,0,0,0.040054
2023/07/06 01:36:00.001,n,241,4.68,1.08,7.2,14.2,68.2,1016.22,0,0,0,0,0.033989
2023/07/06 01:37:00.001,n,240,4.32,2.88,6.48,14.2,68.3,1016.22,0,0,0,0,0.039215
2023/07/06 01:38:00.004,n,184,2.52,1.08,4.68,14.1,68.4,1016.22,0,0,0,0,0.040054
2023/07/06 01:39:00.003,n,242,3.24,0.72,4.32,14.1,68.5,1016.22,0,0,0,0,0.03746
2023/07/06 01:40:00.001,n,237,3.96,0.72,5.76,14.1,68.6,1016.22,0,0,0,0,0.040054
2023/07/06 01:41:00.006,n,190,2.52,2.16,3.6,14.1,68.9,1016.22,0,0,0,0,0.038338
2023/07/06 01:42:00.001,n,246,2.88,1.8,4.32,14.1,68.9,1016.22,0,0,0,0,0.041847
2023/07/06 01:43:00.003,n,273,5.04,3.96,5.4,14,69,1016.22,0,0,0,0,0.036583
2023/07/06 01:44:00.021,n,262,3.6,0.72,4.68,14,68.9,1016.22,0,0,0,0,0.034866
2023/07/06 01:45:00.001,n,229,2.52,1.44,3.6,14,68.9,1016.22,0,0,0,0,0.038338
2023/07/06 01:46:00.006,n,240,3.96,1.8,6.12,14,69.2,1016.22,0,0,0,0,0.038338
2023/07/06 01:47:00.015,n,292,6.12,5.4,6.48,14,68.8,1016.22,0,0,0,0,0.038338
2023/07/06 01:48:00.009,n,274,4.68,0.72,5.4,14,69.6,1016.22,0,0,0,0,0.040054
2023/07/06 01:49:00.002,n,273,4.68,0.72,5.76,14.1,69.2,1016.22,0,0,0,0,0.036583
2023/07/06 01:50:00.003,n,274,5.04,4.68,5.4,14,68.7,1016.22,0,0,0,0,0.038338
2023/07/06 01:51:00.001,n,225,2.16,1.44,2.88,14,68.5,1016.22,0,0,0,0,0.035706
2023/07/06 01:52:00.001,n,189,3.24,2.52,3.96,14,68.8,1016.22,0,0,0,0,0.03746
2023/07/06 01:53:00.006,n,263,5.4,3.96,6.48,14,69.1,1016.22,0,0,0,0,0.035706
2023/07/06 01:54:00.007,n,285,7.92,6.84,9,14,68.8,1016.22,0,0,0,0,0.034866
2023/07/06 01:55:00.002,n,260,3.96,1.8,5.4,14,68.6,1016.22,0,0,0,0,0.035706
2023/07/06 01:56:00.001,n,235,6.48,5.4,7.2,13.9,68.7,1016.22,0,0,0,0,0.036583
2023/07/06 01:57:00.015,n,262,8.64,8.28,9.36,13.9,68.9,1016.22,0,0,0,0,0.035706
2023/07/06 01:58:00.001,n,271,4.68,1.44,5.04,13.9,69.1,1016.22,0,0,0,0,0.035706
2023/07/06 01:59:00.009,n,256,3.6,0.36,4.68,13.9,69.3,1016.22,0,0,0,0,0.035706
2023/07/06 02:00:00.005,n,221,3.24,0.36,5.4,13.9,69.2,1016.22,0,0,0,0,0.030479
2023/07/06 02:01:00.004,n,232,2.88,1.08,5.76,13.8,69.3,1016.22,0,0,0,0,0.033989
2023/07/06 02:02:00.007,n,258,5.76,5.4,6.12,13.8,69.4,1016.22,0,0,0,0,0.033112
2023/07/06 02:03:00.001,n,253,3.6,1.8,4.32,13.8,69.5,1016.12,0,0,0,0,0.032234
2023/07/06 02:04:00.008,n,225,4.32,2.16,5.4,13.8,69.5,1016.22,0,0,0,0,0.032234
2023/07/06 02:05:00.003,n,266,5.04,4.68,5.4,13.8,69.5,1016.12,0,0,0,0,0.033989
2023/07/06 02:06:00.011,n,339,3.96,1.08,7.56,13.8,70.2,1016.22,0,0,0,0,0.030479
2023/07/06 02:07:00.001,n,277,3.6,3.24,3.96,13.8,70.9,1016.22,0,0,0,0,0.033989
2023/07/06 02:08:00.001,n,268,4.32,3.6,5.04,13.8,70.6,1016.22,0,0,0,0,0.032234
2023/07/06 02:09:00.002,n,263,3.24,0.72,3.6,13.8,70.3,1016.32,0,0,0,0,0.030479
2023/07/06 02:10:00.008,n,281,5.4,3.96,5.76,13.8,71.2,1016.32,0,0,0,0,0.032234
2023/07/06 02:11:00.001,n,281,1.8,0.72,2.16,13.8,70.2,1016.32,0,0,0,0,0.033989
2023/07/06 02:12:00.011,n,148,2.52,0.36,5.76,13.8,70.1,1016.32,0,0,0,0,0.032234
2023/07/06 02:13:00.011,n,228,2.16,1.8,3.6,13.8,69.9,1016.22,0,0,0,0,0.02964
2023/07/06 02:14:00.010,n,268,4.32,3.6,5.04,13.7,69.7,1016.22,0,0,0,0,0.030479
2023/07/06 02:15:00.021,n,292,2.88,2.16,4.32,13.7,70.3,1016.22,0,0,0,0,0.028763
2023/07/06 02:16:00.001,n,271,6.12,5.4,6.48,13.7,69.8,1016.22,0,0,0,0,0.027885
2023/07/06 02:17:00.005,n,284,2.16,1.8,2.52,13.6,69.8,1016.22,0,0,0,0,0.027885
2023/07/06 02:18:00.001,n,246,3.24,0.36,4.32,13.6,69.9,1016.22,0,0,0,0,0.026131
2023/07/06 02:19:00.001,n,275,4.32,3.24,4.68,13.6,69.8,1016.22,0,0,0,0,0.02964
2023/07/06 02:20:00.005,n,169,2.52,1.44,3.24,13.6,70.4,1016.32,0,0,0,0,0.028763
2023/07/06 02:21:00.005,n,278,5.4,5.04,5.76,13.6,69.9,1016.32,0,0,0,0,0.028763
2023/07/06 02:22:00.008,n,255,4.68,1.8,5.76,13.6,69.8,1016.32,0,0,0,0,0.02964
2023/07/06 02:23:00.019,n,274,4.68,4.32,5.04,13.6,69.8,1016.22,0,0,0,0,0.02964
2023/07/06 02:24:00.009,n,232,3.6,0.72,5.04,13.6,69.9,1016.22,0,0,0,0,0.02964
2023/07/06 02:25:00.001,n,236,2.88,0.36,4.32,13.6,69.8,1016.22,0,0,0,0,0.031357
2023/07/06 02:26:00.010,n,278,3.6,2.88,5.04,13.6,70.4,1016.22,0,0,0,0,0.026131
2023/07/06 02:27:00.002,n,263,4.32,0.72,5.04,13.6,70.1,1016.32,0,0,0,0,0.027885
2023/07/06 02:28:00.002,n,254,3.6,1.08,4.32,13.6,71,1016.32,0,0,0,0,0.026131
2023/07/06 02:29:00.009,n,280,3.96,3.24,4.68,13.6,70.7,1016.22,0,0,0,0,0.027885
2023/07/06 02:30:00.012,n,285,3.96,3.6,4.32,13.7,71.7,1016.22,0,0,0,0,0.030479
2023/07/06 02:31:00.008,n,233,2.16,1.8,2.52,13.7,71.3,1016.22,0,0,0,0,0.031357
2023/07/06 02:32:00.007,n,241,2.16,1.8,2.52,13.7,70.5,1016.22,0,0,0,0,0.028763
2023/07/06 02:33:00.007,n,139,3.24,1.44,4.68,13.6,70.5,1016.12,0,0,0,0,0.027008
2023/07/06 02:34:00.001,n,158,4.32,1.44,6.48,13.6,70.3,1016.12,0,0,0,0,0.028763
2023/07/06 02:35:00.001,n,157,4.32,1.08,8.28,13.6,70.2,1016.12,0,0,0,0,0.027885
2023/07/06 02:36:00.003,n,183,4.68,1.44,6.12,13.6,70.2,1016.12,0,0,0,0,0.027008
2023/07/06 02:37:00.011,n,283,3.24,1.8,3.96,13.6,71.5,1016.12,0,0,0,0,0.025291
2023/07/06 02:38:00.005,n,308,4.68,3.24,5.4,13.6,70.8,1016.12,0,0,0,0,0.027885
2023/07/06 02:39:00.003,n,309,2.16,1.08,2.52,13.6,71.2,1016.12,0,0,0,0,0.022659
2023/07/06 02:40:00.011,n,60,0.72,0.36,4.68,13.6,71.5,1016.12,0,0,0,0,0.027885
2023/07/06 02:41:00.012,n,157,4.68,1.8,7.56,13.6,71.1,1016.12,0,0,0,0,0.030479
2023/07/06 02:42:00.006,n,295,0.72,0.36,1.08,13.5,70.7,1016.12,0,0,0,0,0.027008
2023/07/06 02:43:00.001,n,159,1.44,0.72,2.16,13.5,70.7,1016.12,0,0,0,0,0.025291
2023/07/06 02:44:00.008,n,159,2.16,0.72,6.48,13.5,71,1016.02,0,0,0,0,0.027008
2023/07/06 02:45:00.001,n,229,1.44,0.36,4.32,13.5,71.4,1016.02,0,0,0,0,0.02964
2023/07/06 02:46:00.002,n,165,6.84,2.88,7.92,13.5,71.7,1016.02,0,0,0,0,0.023537
2023/07/06 02:47:00.009,n,165,2.16,0.36,4.68,13.4,72.1,1016.02,0,0,0,0,0.020905
2023/07/06 02:48:00.001,n,160,6.12,3.24,8.28,13.4,72.5,1015.92,0,0,0,0,0.025291
2023/07/06 02:49:00.020,n,159,2.16,1.08,7.92,13.4,72.8,1015.92,0,0,0,0,0.023537
2023/07/06 02:50:00.007,n,172,8.28,4.68,9.36,13.3,73,1015.92,0,0,0,0,0.025291
2023/07/06 02:51:00.019,n,176,7.2,4.32,10.440002,13.3,73.2,1016.02,0,0,0,0,0.020905
2023/07/06 02:52:00.003,n,153,3.6,1.44,7.56,13.2,73.5,1016.02,0,0,0,0,0.024414
2023/07/06 02:53:00.004,n,181,4.32,3.6,5.04,13.2,73.3,1016.02,0,0,0,0,0.027008
2023/07/06 02:54:00.003,n,177,7.56,4.32,9.36,13.2,73.3,1016.02,0,0,0,0,0.025291
2023/07/06 02:55:00.001,n,100,1.44,0.72,2.16,13.2,73.4,1016.02,0,0,0,0,0.024414
2023/07/06 02:56:00.011,n,129,5.76,3.96,7.92,13.2,73.3,1016.02,0,0,0,0,0.023537
2023/07/06 02:57:00.008,n,200,5.4,2.16,7.56,13.2,73.3,1016.02,0,0,0,0,0.027885
2023/07/06 02:58:00.006,n,159,3.96,0.72,7.56,13.2,73.5,1016.02,0,0,0,0,0.023537
2023/07/06 02:59:00.011,n,163,3.24,1.08,8.64,13.2,73.3,1016.02,0,0,0,0,0.020905
2023/07/06 03:00:00.008,n,170,6.84,3.24,8.64,13.2,73.4,1016.02,0,0,0,0,0.024414
2023/07/06 03:01:00.001,n,172,7.2,3.6,8.64,13.2,73.3,1016.02,0,0,0,0,0.020065
2023/07/06 03:02:00.004,n,165,6.84,3.6,9.36,13.2,73.3,1015.92,0,0,0,0,0.024414
2023/07/06 03:03:00.001,n,180,7.92,5.04,10.8,13.2,73.1,1015.92,0,0,0,0,0.019188
2023/07/06 03:04:00.001,n,220,3.96,2.52,6.48,13.2,73.1,1015.92,0,0,0,0,0.020905
2023/07/06 03:05:00.001,n,163,9,4.32,10.8,13.2,73.1,1015.82,0,0,0,0,0.018311
2023/07/06 03:06:00.009,n,161,3.96,1.44,7.2,13.2,73,1015.82,0,0,0,0,0.021782
2023/07/06 03:07:00.011,n,157,6.84,4.32,10.08,13.2,73.1,1015.82,0,0,0,0,0.020065
2023/07/06 03:08:00.008,n,169,3.96,1.44,8.28,13.2,73.2,1015.82,0,0,0,0,0.020065
2023/07/06 03:09:00.009,n,168,6.48,3.6,10.08,13.2,73.2,1015.82,0,0,0,0,0.016556
2023/07/06 03:10:00.001,n,188,5.76,4.32,8.64,13.2,73.3,1015.82,0,0,0,0,0.023537
2023/07/06 03:11:00.003,n,170,8.64,3.6,10.08,13.2,73.3,1015.82,0,0,0,0,0.020905
2023/07/06 03:12:00.001,n,173,6.84,2.88,9,13.2,73.5,1015.82,0,0,0,0,0.017433
2023/07/06 03:13:00.002,n,301,1.8,1.08,3.96,13.1,73.5,1015.82,0,0,0,0,0.020905
2023/07/06 03:14:00.010,n,137,2.52,1.8,2.52,13.1,73.7,1015.82,0,0,0,0,0.016556
2023/07/06 03:15:00.003,n,176,3.24,0.36,6.84,13.1,73.7,1015.82,0,0,0,0,0.020065
2023/07/06 03:16:00.007,n,210,0.72,0,1.08,13.1,73.7,1015.82,0,0,0,0,0.019188
2023/07/06 03:17:00.008,n,102,2.16,1.08,4.32,13.1,73.8,1015.82,0,0,0,0,0.019188
2023/07/06 03:18:00.017,n,139,5.76,2.52,7.56,13.1,73.7,1015.72,0,0,0,0,0.021782
2023/07/06 03:19:00.002,n,144,2.88,1.8,3.24,13.1,73.7,1015.72,0,0,0,0,0.024414
2023/07/06 03:20:00.002,n,146,3.96,3.24,4.32,13.1,73.7,1015.72,0,0,0,0,0.024414
2023/07/06 03:21:00.001,n,150,4.32,3.24,9.36,13.1,73.7,1015.72,0,0,0,0,0.025253
2023/07/06 03:22:00.010,n,118,1.8,1.44,2.16,13,73.8,1015.72,0,0,0,0,0.030479
2023/07/06 03:23:00.014,n,154,5.04,3.6,8.28,13,73.9,1015.62,0,0,0,0,0.027008
2023/07/06 03:24:00.007,n,162,5.76,4.32,10.08,13,74.1,1015.62,0,0,0,0,0.024414
2023/07/06 03:25:00.009,n,153,6.48,3.24,9.36,13,74.1,1015.62,0,0,0,0,0.025253
2023/07/06 03:26:00.017,n,137,5.4,4.68,5.76,12.9,74.2,1015.62,0,0,0,0,0.025253
2023/07/06 03:27:00.005,n,140,4.32,3.6,4.68,12.9,74.2,1015.62,0,0,0,0,0.027008
2023/07/06 03:28:00.002,n,146,4.32,3.24,8.28,12.9,74.3,1015.62,0,0,0,0,0.027008
2023/07/06 03:29:00.003,n,162,9.36,5.04,11.52,12.9,74.4,1015.72,0,0,0,0,0.026131
2023/07/06 03:30:00.002,n,167,6.84,3.96,9.72,12.9,74.5,1015.72,0,0,0,0,0.021782
2023/07/06 03:31:00.012,n,187,7.92,3.96,9.72,12.9,74.6,1015.72,0,0,0,0,0.022659
2023/07/06 03:32:00.013,n,155,7.2,5.04,11.88,12.9,74.6,1015.72,0,0,0,0,0.023537
2023/07/06 03:33:00.013,n,145,7.2,6.12,7.92,12.8,74.6,1015.62,0,0,0,0,0.021782
2023/07/06 03:34:00.006,n,154,3.6,2.16,5.04,12.8,74.6,1015.62,0,0,0,0,0.019188
2023/07/06 03:35:00.007,n,146,6.12,5.76,6.84,12.8,74.6,1015.62,0,0,0,0,0.022659
2023/07/06 03:36:00.013,n,159,8.64,3.96,11.88,12.8,74.4,1015.62,0,0,0,0,0.025253
2023/07/06 03:37:00.001,n,105,2.88,2.16,3.24,12.8,74.5,1015.62,0,0,0,0,0.016556
2023/07/06 03:38:00.001,n,170,5.4,2.16,9.72,12.8,74.6,1015.62,0,0,0,0,0.020905
2023/07/06 03:39:00.001,n,167,7.2,3.6,9,12.8,74.7,1015.62,0,0,0,0,0.017433
2023/07/06 03:40:00.001,n,171,9.72,5.04,11.52,12.8,74.8,1015.52,0,0,0,0,0.016556
2023/07/06 03:41:00.008,n,153,5.4,3.96,10.440002,12.8,74.7,1015.62,0,0,0,0,0.016556
2023/07/06 03:42:00.011,n,176,9.36,7.2,13.68,12.7,74.5,1015.52,0,0,0,0,0.020065
2023/07/06 03:43:00.009,n,155,7.2,6.12,12.24,12.7,74.6,1015.52,0,0,0,0,0.018272
2023/07/06 03:44:00.015,n,130,3.24,0.36,5.04,12.7,74.7,1015.62,0,0,0,0,0.020065
2023/07/06 03:45:00.015,n,170,9.36,6.12,11.52,12.7,74.8,1015.62,0,0,0,0,0.018272
2023/07/06 03:46:00.001,n,159,7.2,2.88,8.28,12.8,74.8,1015.62,0,0,0,0,0.017433
2023/07/06 03:47:00.001,n,163,4.68,1.44,7.2,12.8,74.5,1015.62,0,0,0,0,0.017433
2023/07/06 03:48:00.011,n,56,1.8,0.72,5.04,12.8,74.4,1015.62,0,0,0,0,0.017433
2023/07/06 03:49:00.010,n,210,2.52,1.44,5.76,12.8,74.5,1015.62,0,0,0,0,0.018272
2023/07/06 03:50:00.001,n,196,1.08,0.36,3.96,12.8,74.3,1015.62,0,0,0,0,0.024376
2023/07/06 03:51:00.018,n,183,0.72,0.36,1.08,12.8,74.4,1015.62,0,0,0,0,0.033073
2023/07/06 03:52:00.014,n,153,3.6,1.44,6.12,12.8,74.3,1015.62,0,0,0,0,0.030479
2023/07/06 03:53:00.010,n,167,5.04,2.16,7.56,12.8,74.1,1015.62,0,0,0,0,0.028725
2023/07/06 03:54:00.012,n,153,5.04,4.32,5.4,12.8,73.9,1015.62,0,0,0,0,0.028725
2023/07/06 03:55:00.004,n,155,5.4,3.96,9.36,12.8,73.9,1015.62,0,0,0,0,0.027885
2023/07/06 03:56:00.006,n,163,5.04,4.32,9.36,12.8,73.9,1015.72,0,0,0,0,0.032234
2023/07/06 03:57:00.001,n,126,3.6,2.52,4.68,12.8,74,1015.72,0,0,0,0,0.029602
2023/07/06 03:58:00.003,n,173,6.48,3.6,8.64,12.8,74.1,1015.72,0,0,0,0,0.031357
2023/07/06 03:59:00.002,n,125,2.52,2.16,2.88,12.8,74.1,1015.72,0,0,0,0,0.028725
2023/07/06 04:00:00.009,n,143,3.6,3.24,3.96,12.8,74.3,1015.62,0,0,0,0,0.030479
2023/07/06 04:01:00.007,n,131,5.4,4.32,6.12,12.7,74.3,1015.62,0,0,0,0,0.028725
2023/07/06 04:02:00.014,n,151,5.04,3.96,9.72,12.7,74.1,1015.62,0,0,0,0,0.027885
2023/07/06 04:03:00.003,n,148,5.04,1.8,7.92,12.7,74.4,1015.62,0,0,0,0,0.026131
2023/07/06 04:04:00.003,n,147,3.96,3.24,4.68,12.6,74.3,1015.62,0,0,0,0,0.025253
2023/07/06 04:05:00.022,n,144,3.96,3.24,4.32,12.6,74.6,1015.62,0,0,0,0,0.026131
2023/07/06 04:06:00.001,n,154,5.4,4.32,9,12.6,74.6,1015.62,0,0,0,0,0.028725
2023/07/06 04:07:00.001,n,157,7.2,4.68,11.16,12.6,74.5,1015.52,0,0,0,0,0.024376
2023/07/06 04:08:00.006,n,171,7.2,3.96,9.72,12.6,74.6,1015.62,0,0,0,0,0.027008
2023/07/06 04:09:00.015,n,179,6.12,3.24,10.8,12.6,74.6,1015.52,0,0,0,0,0.028725
2023/07/06 04:10:00.002,n,154,6.12,4.32,10.08,12.6,74.5,1015.52,0,0,0,0,0.026131
2023/07/06 04:11:00.009,n,163,5.4,1.44,10.8,12.6,74.6,1015.52,0,0,0,0,0.025253
2023/07/06 04:12:00.006,n,164,7.92,5.4,11.52,12.6,74.6,1015.52,0,0,0,0,0.027885
2023/07/06 04:13:00.002,n,156,6.48,4.68,9.36,12.6,74.6,1015.52,0,0,0,0,0.028725
2023/07/06 04:14:00.005,n,153,4.32,1.44,8.64,12.6,74.6,1015.52,0,0,0,0,0.026131
2023/07/06 04:15:00.001,n,168,9.36,5.4,12.24,12.6,74.5,1015.52,0,0,0,0,0.027885
2023/07/06 04:16:00.001,n,156,9,5.04,12.96,12.6,74.5,1015.52,0,0,0,0,0.026131
2023/07/06 04:17:00.002,n,156,8.28,6.48,12.96,12.6,74.4,1015.52,0,0,0,0,0.027008
2023/07/06 04:18:00.018,n,139,4.32,1.44,5.4,12.6,74.4,1015.52,0,0,0,0,0.022659
2023/07/06 04:19:00.006,n,161,7.56,3.6,9.72,12.5,74.5,1015.52,0,0,0,0,0.023537
2023/07/06 04:20:00.015,n,160,6.12,2.16,9.36,12.5,74.6,1015.52,0,0,0,0,0.023537
2023/07/06 04:21:00.019,n,151,4.32,2.88,8.64,12.5,74.7,1015.52,0,0,0,0,0.01915
2023/07/06 04:22:00.002,n,155,7.56,2.52,8.64,12.5,74.7,1015.52,0,0,0,0,0.020905
2023/07/06 04:23:00.001,n,159,7.92,4.32,10.8,12.5,74.6,1015.52,0,0,0,0,0.024376
2023/07/06 04:24:00.001,n,149,5.4,4.68,6.48,12.5,74.6,1015.52,0,0,0,0,0.023537
2023/07/06 04:25:00.002,n,159,5.4,3.96,9.36,12.5,74.6,1015.62,0,0,0,0,0.021782
2023/07/06 04:26:00.006,n,159,7.92,5.04,11.16,12.5,74.6,1015.62,0,0,0,0,0.022659
2023/07/06 04:27:00.016,n,145,3.6,2.88,4.32,12.5,74.6,1015.62,0,0,0,0,0.021782
2023/07/06 04:28:00.013,n,156,5.76,3.6,9.36,12.5,74.4,1015.62,0,0,0,0,0.021782
2023/07/06 04:29:00.005,n,150,6.84,6.48,6.84,12.5,74.5,1015.62,0,0,0,0,0.020905
2023/07/06 04:30:00.001,n,167,7.92,3.96,9.72,12.5,74.5,1015.62,0,0,0,0,0.020027
2023/07/06 04:31:00.012,n,152,8.64,6.12,12.96,12.5,74.5,1015.62,0,0,0,0,0.021782
2023/07/06 04:32:00.002,n,178,10.8,7.56,12.96,12.5,74.2,1015.62,0,0,0,0,0.020027
2023/07/06 04:33:00.001,n,162,6.84,3.96,9.72,12.5,74.2,1015.62,0,0,0,0,0.018311
2023/07/06 04:34:00.001,n,146,2.88,2.16,3.6,12.6,74.2,1015.62,0,0,0,0,0.022659
2023/07/06 04:35:00.001,n,162,7.92,4.68,10.440002,12.6,74.2,1015.52,0,0,0,0,0.01915
2023/07/06 04:36:00.010,n,170,4.68,3.6,9,12.6,74.2,1015.52,0,0,0,0,0.017433
2023/07/06 04:37:00.006,n,164,10.8,5.76,11.88,12.6,74.2,1015.62,0,0,0,0,0.021782
2023/07/06 04:38:00.013,n,163,7.92,4.32,10.08,12.6,74.1,1015.62,0,0,0,0,0.015678
2023/07/06 04:39:00.007,n,184,6.12,3.6,11.16,12.6,74.2,1015.62,0,0,0,0,0.017433
2023/07/06 04:40:00.001,n,170,10.8,5.76,12.6,12.6,74.1,1015.62,0,0,0,0,0.016556
2023/07/06 04:41:00.002,n,187,2.88,2.52,3.24,12.6,74.1,1015.62,0,0,0,0,0.020905
2023/07/06 04:42:00.002,n,154,2.88,1.8,3.6,12.6,74.2,1015.62,0,0,0,0,0.01915
2023/07/06 04:43:00.001,n,163,4.68,0.72,6.12,12.6,74.2,1015.62,0,0,0,0,0.023537
2023/07/06 04:44:00.005,n,163,1.8,0.72,2.88,12.6,74.2,1015.62,0,0,0,0,0.022659
2023/07/06 04:45:00.004,n,290,1.08,0.72,1.44,12.6,74.2,1015.62,0,0,0,0,0.020905
2023/07/06 04:46:00.008,n,137,3.6,2.16,4.68,12.6,74.2,1015.62,0,0,0,0,0.021782
2023/07/06 04:47:00.004,n,140,3.24,1.44,5.04,12.6,74.3,1015.62,0,0,0,0,0.01915
2023/07/06 04:48:00.016,n,183,1.44,0.36,3.6,12.6,74.5,1015.62,0,0,0,0,0.022659
2023/07/06 04:49:00.002,n,124,1.08,0.36,1.44,12.6,74.5,1015.62,0,0,0,0,0.022659
2023/07/06 04:50:00.002,n,255,0.72,0.36,0.72,12.6,74.4,1015.62,0,0,0,0,0.022659
2023/07/06 04:51:00.002,n,193,2.88,2.52,3.24,12.6,74.3,1015.72,0,0,0,0,0.022659
2023/07/06 04:52:00.001,n,49,1.8,0.36,3.24,12.6,74.6,1015.72,0,0,0,0,0.020905
2023/07/06 04:53:00.008,n,83,2.16,1.08,2.88,12.7,74.8,1015.72,0,0,0,0,0.021782